Weather History for Hammond, LA

Change the Weather History Date:

Tuesday, October 11, 2011

  Actual Average (KMSY) Record (KMSY)
Temperature  
Mean Temperature 70 °F -  
Max Temperature 80 °F 81 °F 91 °F (1980)
Min Temperature 60 °F 59 °F 45 °F (1976)
Cooling Degree Days 5    
Growing Degree Days 20 (Base 50)    
Moisture  
Dew Point 65 °F    
Average Humidity 84    
Maximum Humidity 100    
Minimum Humidity 61    
Precipitation  
Precipitation 0.00 in - - ()
Sea Level Pressure  
Sea Level Pressure 29.89 in    
Wind  
Wind Speed 3 mph (North)    
Max Wind Speed 10 mph    
Max Gust Speed -    
Visibility 10 miles    
Events      
Averages and records for this station are not official NWS values.
T = Trace of Precipitation, MM = Missing Value Source: NWS Daily Summary

Daily Weather History Graph

Daily Weather History Graph

Search for Another Location

Airport:

Trip Planner

Search our weather history database for the weather conditions in past years. The results will help you decide how hot, cold, wet, or windy it might be!

Date:

Astronomy

Oct. 11, 2011 Rise Set
Actual Time 7:01 AM CDT 6:35 PM CDT
Civil Twilight 6:37 AM CDT 6:59 PM CDT
Nautical Twilight 6:09 AM CDT 7:27 PM CDT
Astronomical Twilight 5:41 AM CDT 7:55 PM CDT
Moon 6:11 PM CDT (10/11) 6:36 AM CDT (10/11)
Length of Visible Light 12h 22m
Length of Day
11h 34m
Full, 100% of the Moon is Illuminated
Oct 11
Full
Oct 11
Full
Oct 19
Last Quarter
Oct 26
New
Nov 2
First Quarter

Hourly Weather History & Observations

Time (CDT) Temp. Heat Index Dew Point Humidity Pressure Visibility Wind Dir Wind Speed Gust Speed Precip Events Conditions
12:15 AM 68.0 °F - 66.2 °F 94% 29.91 in 10.0 mi Calm Calm - N/A   Clear
12:35 AM 68.0 °F - 66.2 °F 94% 29.90 in 10.0 mi Calm Calm - N/A   Clear
12:55 AM 66.2 °F - 66.2 °F 100% 29.90 in 10.0 mi Calm Calm - N/A   Clear
1:15 AM 66.2 °F - 66.2 °F 100% 29.90 in 10.0 mi Calm Calm - N/A   Clear
1:35 AM 64.4 °F - 64.4 °F 100% 29.90 in 10.0 mi Calm Calm - N/A   Clear
1:55 AM 64.4 °F - 64.4 °F 100% 29.90 in 10.0 mi North 3.5 mph - N/A   Clear
2:15 AM 64.4 °F - 64.4 °F 100% 29.89 in 10.0 mi North 3.5 mph - N/A   Clear
2:35 AM 64.4 °F - 64.4 °F 100% 29.89 in 10.0 mi North 3.5 mph - N/A   Clear
2:55 AM 64.4 °F - 64.4 °F 100% 29.89 in 10.0 mi Calm Calm - N/A   Clear
3:15 AM 64.4 °F - 64.4 °F 100% 29.90 in 10.0 mi Calm Calm - N/A   Clear
3:35 AM 62.6 °F - 62.6 °F 100% 29.90 in 10.0 mi Calm Calm - N/A   Clear
3:55 AM 62.6 °F - 62.6 °F 100% 29.90 in 10.0 mi Calm Calm - N/A   Clear
4:15 AM 62.6 °F - 62.6 °F 100% 29.90 in 10.0 mi Calm Calm - N/A   Clear
4:35 AM 60.8 °F - 60.8 °F 100% 29.90 in 7.0 mi North 3.5 mph - N/A   Clear
4:55 AM 60.8 °F - 60.8 °F 100% 29.90 in 10.0 mi North 4.6 mph - N/A   Clear
5:15 AM 62.6 °F - 62.6 °F 100% 29.90 in 10.0 mi North 4.6 mph - N/A   Clear
5:35 AM 62.6 °F - 62.6 °F 100% 29.91 in 10.0 mi North 3.5 mph - N/A   Clear
5:55 AM 60.8 °F - 60.8 °F 100% 29.91 in 7.0 mi NNW 3.5 mph - N/A   Clear
6:15 AM 60.8 °F - 60.8 °F 100% 29.91 in 7.0 mi North 4.6 mph - N/A   Clear
6:35 AM 60.8 °F - 60.8 °F 100% 29.91 in 10.0 mi North 4.6 mph - N/A   Clear
6:55 AM 60.8 °F - 60.8 °F 100% 29.92 in 10.0 mi NNW 3.5 mph - N/A   Clear
7:15 AM 60.8 °F - 60.8 °F 100% 29.92 in 7.0 mi NNW 3.5 mph - N/A   Clear
8:15 AM 66.2 °F - 64.4 °F 94% 29.92 in 10.0 mi North 4.6 mph - N/A   Clear
8:35 AM 68.0 °F - 64.4 °F 88% 29.93 in 10.0 mi North 5.8 mph - N/A   Clear
8:55 AM 68.0 °F - 66.2 °F 94% 29.93 in 10.0 mi North 3.5 mph - N/A   Clear
9:15 AM 69.8 °F - 66.2 °F 88% 29.93 in 10.0 mi North 4.6 mph - N/A   Clear
9:55 AM 73.4 °F - 66.2 °F 78% 29.93 in 10.0 mi Calm Calm - N/A   Clear
10:15 AM 73.4 °F - 66.2 °F 78% 29.93 in 10.0 mi North 6.9 mph - N/A   Mostly Cloudy
10:35 AM 73.4 °F - 66.2 °F 78% 29.93 in 10.0 mi North 5.8 mph - N/A   Overcast
10:55 AM 75.2 °F - 66.2 °F 73% 29.92 in 10.0 mi NW 9.2 mph - N/A   Mostly Cloudy
11:15 AM 75.2 °F - 66.2 °F 73% 29.92 in 10.0 mi NW 6.9 mph - N/A   Mostly Cloudy
11:35 AM 75.2 °F - 66.2 °F 73% 29.92 in 10.0 mi NNW 8.1 mph - N/A   Overcast
11:55 AM 77.0 °F - 66.2 °F 69% 29.92 in 10.0 mi North 8.1 mph - N/A   Overcast
12:15 PM 77.0 °F - 66.2 °F 69% 29.91 in 10.0 mi NNE 9.2 mph - N/A   Overcast
12:35 PM 78.8 °F - 66.2 °F 65% 29.91 in 10.0 mi North 6.9 mph - N/A   Overcast
12:55 PM 78.8 °F - 66.2 °F 65% 29.90 in 10.0 mi NW 8.1 mph - N/A   Overcast
1:15 PM 80.6 °F 82.7 °F 66.2 °F 61% 29.88 in 10.0 mi NNW 5.8 mph - N/A   Mostly Cloudy
1:35 PM 80.6 °F 82.7 °F 66.2 °F 61% 29.88 in 10.0 mi NNW 10.4 mph - N/A   Mostly Cloudy
1:55 PM 78.8 °F - 66.2 °F 65% 29.87 in 10.0 mi NW 9.2 mph - N/A   Overcast
2:15 PM 78.8 °F - 66.2 °F 65% 29.87 in 10.0 mi NNW 10.4 mph - N/A   Overcast
2:35 PM 78.8 °F - 66.2 °F 65% 29.86 in 10.0 mi NW 6.9 mph - N/A   Overcast
2:55 PM 78.8 °F - 66.2 °F 65% 29.85 in 10.0 mi North 8.1 mph - N/A   Overcast
3:15 PM 78.8 °F - 66.2 °F 65% 29.85 in 10.0 mi NNW 8.1 mph - N/A   Overcast
3:35 PM 77.0 °F - 66.2 °F 69% 29.85 in 10.0 mi NNE 4.6 mph - N/A   Overcast
3:55 PM 77.0 °F - 66.2 °F 69% 29.85 in 10.0 mi North 4.6 mph - N/A   Overcast
4:15 PM 77.0 °F - 66.2 °F 69% 29.84 in 10.0 mi NNW 5.8 mph - N/A   Overcast
4:55 PM 75.2 °F - 66.2 °F 73% 29.86 in 10.0 mi North 6.9 mph - N/A   Overcast
5:15 PM 75.2 °F - 66.2 °F 73% 29.85 in 10.0 mi NNE 3.5 mph - N/A   Overcast
5:55 PM 73.4 °F - 66.2 °F 78% 29.85 in 10.0 mi Calm Calm - N/A   Overcast
6:15 PM 73.4 °F - 66.2 °F 78% 29.86 in 10.0 mi Calm Calm - N/A   Overcast
6:35 PM 73.4 °F - 66.2 °F 78% 29.86 in 10.0 mi Calm Calm - N/A   Overcast
6:55 PM 73.4 °F - 66.2 °F 78% 29.86 in 10.0 mi NE 3.5 mph - N/A   Overcast
7:15 PM 73.4 °F - 66.2 °F 78% 29.86 in 10.0 mi NE 3.5 mph - N/A   Overcast
7:35 PM 71.6 °F - 68.0 °F 88% 29.87 in 10.0 mi NE 3.5 mph - N/A   Overcast
7:55 PM 71.6 °F - 68.0 °F 88% 29.87 in 10.0 mi ENE 4.6 mph - N/A   Overcast
8:15 PM 71.6 °F - 68.0 °F 88% 29.87 in 10.0 mi NE 4.6 mph - N/A   Overcast
8:35 PM 71.6 °F - 66.2 °F 83% 29.88 in 10.0 mi ENE 3.5 mph - N/A   Overcast
8:55 PM 71.6 °F - 66.2 °F 83% 29.89 in 10.0 mi Calm Calm - N/A   Overcast
9:15 PM 71.6 °F - 66.2 °F 83% 29.90 in 10.0 mi Calm Calm - N/A   Overcast
9:35 PM 69.8 °F - 66.2 °F 88% 29.90 in 10.0 mi Calm Calm - N/A   Overcast
9:55 PM 69.8 °F - 66.2 °F 88% 29.90 in 10.0 mi Calm Calm - N/A   Overcast
10:15 PM 69.8 °F - 66.2 °F 88% 29.91 in 10.0 mi Calm Calm - N/A   Overcast
10:35 PM 69.8 °F - 66.2 °F 88% 29.90 in 10.0 mi Calm Calm - N/A   Overcast
10:55 PM 69.8 °F - 66.2 °F 88% 29.90 in 10.0 mi Calm Calm - N/A   Mostly Cloudy
11:15 PM 69.8 °F - 66.2 °F 88% 29.90 in 10.0 mi Calm Calm - N/A   Clear
11:35 PM 66.2 °F - 64.4 °F 94% 29.89 in 10.0 mi Calm Calm - N/A   Clear
11:55 PM 66.2 °F - 66.2 °F 100% 29.89 in 10.0 mi Calm Calm - N/A   Clear